TimeMST,TemperatureF,Dew PointF,Humidity,Sea Level PressureIn,VisibilityMPH,Wind Direction,Wind SpeedMPH,Gust SpeedMPH,PrecipitationIn,Events,Conditions,WindDirDegrees,DateUTC
12:58 AM,63.5,27.7,26,29.74,10.0,ESE,6.9,-,N/A,,Clear,120,2013-10-09 07:58:00
1:58 AM,64.0,27.9,26,29.73,10.0,SE,9.2,-,N/A,,Clear,130,2013-10-09 08:58:00
2:58 AM,62.4,29.3,29,29.73,10.0,ESE,5.8,-,N/A,,Clear,110,2013-10-09 09:58:00
3:58 AM,61.7,30.2,30,29.72,10.0,ESE,4.6,-,N/A,,Clear,110,2013-10-09 10:58:00
4:58 AM,65.8,33.8,30,29.70,10.0,ESE,10.4,-,N/A,,Clear,120,2013-10-09 11:58:00
5:58 AM,66.7,34.7,31,29.71,10.0,ESE,12.7,-,N/A,,Clear,120,2013-10-09 12:58:00
6:58 AM,66.4,35.8,32,29.71,10.0,SE,18.4,-,N/A,,Clear,130,2013-10-09 13:58:00
7:58 AM,71.1,35.1,27,29.73,10.0,ESE,11.5,-,N/A,,Clear,120,2013-10-09 14:58:00
8:58 AM,76.1,34.0,22,29.74,10.0,SW,5.8,-,N/A,,Clear,220,2013-10-09 15:58:00
9:55 AM,78.4,32.5,19,29.71,9.0,South,19.6,31.1,N/A,,Clear,170,2013-10-09 16:55:00
10:55 AM,82.2,33.8,17,29.68,7.0,South,21.9,31.1,N/A,,Clear,190,2013-10-09 17:55:00
11:58 AM,84.2,35.2,17,29.70,10.0,South,25.3,34.5,N/A,,Partly Cloudy,180,2013-10-09 18:58:00
12:58 PM,86.2,32.4,15,29.68,10.0,SSW,21.9,32.2,N/A,,Scattered Clouds,200,2013-10-09 19:58:00
1:27 PM,86.0,33.8,15,29.77,9.0,SSW,12.7,29.9,N/A,,Partly Cloudy,210,2013-10-09 20:27:00
1:50 PM,86.0,32.0,14,29.76,7.0,SW,20.7,28.8,N/A,,Partly Cloudy,220,2013-10-09 20:50:00
2:43 PM,86.0,35.6,17,29.76,10.0,South,20.7,35.7,N/A,,Clear,170,2013-10-09 21:43:00
2:58 PM,86.0,36.7,17,29.64,9.0,South,20.7,32.2,N/A,,Clear,180,2013-10-09 21:58:00
3:58 PM,85.5,35.8,17,29.63,10.0,South,25.3,29.9,N/A,,Clear,190,2013-10-09 22:58:00
4:58 PM,83.8,39.2,20,29.62,10.0,South,24.2,38.0,0.02,,Clear,190,2013-10-09 23:58:00
5:58 PM,81.3,43.7,26,29.63,10.0,South,19.6,32.2,N/A,,Partly Cloudy,170,2013-10-10 00:58:00
6:58 PM,79.5,43.3,28,29.63,10.0,South,15.0,23.0,N/A,,Clear,190,2013-10-10 01:58:00
7:58 PM,78.1,40.1,26,29.65,10.0,South,15.0,-,N/A,,Clear,190,2013-10-10 02:58:00
8:58 PM,77.0,43.0,30,29.65,10.0,South,20.7,28.8,N/A,,Clear,180,2013-10-10 03:58:00
9:58 PM,75.7,39.4,27,29.78,10.0,SSW,19.6,29.9,N/A,,Clear,200,2013-10-10 04:58:00
10:58 PM,73.9,42.3,32,29.78,10.0,SW,15.0,25.3,N/A,,Clear,220,2013-10-10 05:58:00
11:58 PM,71.8,42.1,34,29.78,10.0,SSW,12.7,24.2,N/A,,Clear,210,2013-10-10 06:58:00